Location: Greenwich
(51.4790°N, 0.0090°E)
Time: 17:45:41
(UTC+01:00)

Altair - Pass Details

Date: 23 April 2024
Orbit: 1501 x 1682 km, 47.2° (Epoch: 18 May)

Event Time Altitude Azimuth Distance (km) Brightness Sun altitude
Rises 23:21:08 0° 278° (W) 4,887 10.6 -22.2°
Reaches altitude 10° 23:24:22 10° 275° (W) 3,878 10.0 -22.4°
Maximum altitude 23:33:58 59° 200° (SSW) 1,796 7.5 -23.0°
Enters shadow 23:38:23 34° 137° (SE) 2,378 8.0 -23.3°
Drops below altitude 10° 23:43:11 10° 124° (ESE) 3,731 - -23.6°
Sets 23:46:14 0° 120° (ESE) 4,692 - -23.7°
